Regional Weather Roundup
Issued by NWS

Home | Current Version | Previous Version | Text Only | Print | Product List | Glossary Off
Versions: 1 2 3 4 5 6 7 8 9 10 11 12 13 14 15 16 17 18 19 20 21 22 23 24 25 26 27 28 29 30 31 32 33 34 35 36 37 38 39 40 41 42 43 44 45 46 47 48 49 50

000
ASUS43 KIND 241109
RWRIN

WEATHER ROUNDUP FOR INDIANA
NATIONAL WEATHER SERVICE INDIANAPOLIS IN
700 AM EDT SAT SEP 24 2016

NOTE: "FAIR" INDICATES FEW OR NO CLOUDS BELOW 12,000 FEET WITH NO
SIGNIFICANT WEATHER AND/OR OBSTRUCTIONS TO VISIBILITY.

* - STATION DOES NOT REPORT WEATHER SUCH AS PRECIPITATION OR FOG.

+ - STATION NOT QUALITY CONTROLLED BY THE NATIONAL WEATHER SERVICE.
    USE DATA WITH CAUTION...ESPECIALLY DEWPOINT AND RELATIVE
    HUMIDITY OBSERVATIONS.

INZ001>003-010>013-019-020-241200-
NORTHWEST INDIANA

CITY           SKY/WX    TMP DP  RH WIND       PRES   REMARKS
GARY /AIRPORT/ CLOUDY    68  64  88 NE6       30.17R
KNOX *+        CLOUDY    64  46  52 E3        30.16R
LA PORTE +     CLOUDY    64  64 100 E6        30.18R
MICHIGAN CITY+ CLOUDY    61  61 100 MISG      30.18R
MONTICELLO +   CLOUDY    68  63  83 NE5       30.14R
RENSSELAER +   CLOUDY    66  64  94 NE3       30.15R FOG
VALPARAISO     CLOUDY    64  61  90 NE6       30.17R

$$

LMZ046-743>745-241200-
SOUTHERN LAKE MICHIGAN

STATION/POSITION TIME  TEMP    WIND        PRES    WAVE
                       AIR SEA DIR/SP/G            HT
                 (UTC) (F)     (DEG/KT/KT) (MB)    (FT)
BURNS HARBOR     1004   64      70/  8/  9 1021.3S
MICHIGAN CITY    1000   63      30/  7/  8   N/A
5NW MICH CITY    1100   64 70   90/  8/ 12   N/A     3

$$

INZ004-005-014>016-021>024-241200-
NORTH CENTRAL INDIANA

CITY           SKY/WX    TMP DP  RH WIND       PRES   REMARKS
GOSHEN         CLOUDY    62  57  83 NE5       30.18R
LOGANSPORT +   CLOUDY    66  63  88 E6        30.15S
PERU/GRISSOM   CLOUDY    67  65  94 E9        30.14R
ROCHESTER +    CLOUDY    68  64  88 E6        30.17R
SOUTH BEND     MOCLDY    59  56  89 E5        30.19R
WARSAW +       CLOUDY    63  54  72 E5        30.17S

$$

INZ006>009-017-018-025>027-241200-
NORTHEAST INDIANA

CITY           SKY/WX    TMP DP  RH WIND       PRES   REMARKS
ANGOLA *+      CLOUDY    61  50  67 E7        30.19R
AUBURN +       CLOUDY    63  55  77 NE6       30.19R
FORT WAYNE     CLOUDY    64  57  78 NE9       30.17R
HUNTINGTON +   CLOUDY    64  60  88 CALM      30.16R
KENDALLVILLE + CLOUDY    61  56  83 E6        30.18S

$$

INZ028-029-035-036-043>045-051>053-241200-
WEST CENTRAL INDIANA

CITY           SKY/WX    TMP DP  RH WIND       PRES   REMARKS
CRAWFORDSVL +  CLEAR     63  63 100 NE3       30.13R FOG
GREENCASTLE +  CLEAR     64  64 100 CALM      30.12S FOG
LAFAYETTE      CLOUDY    68  67  96 E9        30.12R FOG
TERRE HAUTE    FOG       63  62  97 CALM      30.11R VSB 1/4

$$

INZ030>032-037>040-046>048-054>057-064-065-241200-
CENTRAL INDIANA

CITY           SKY/WX    TMP DP  RH WIND       PRES   REMARKS
COLUMBUS         N/A     64  64 100 CALM      30.12  FOG
GREENWOOD *+   CLOUDY    66  66 100 NE6       30.13R
INDIANAPOLIS   MOCLDY    68  65  90 NE9       30.12R FOG
-EAGLE CREEK   MOCLDY    67  64  90 NE8       30.12R
MARION +       CLOUDY    64  62  93 E5        30.16R FOG
MT COMFORT *+  CLOUDY    66  64  94 NE7       30.14R
SHELBYVILLE    CLOUDY    68  65  90 NE3       30.11R FOG
ZIONSVILLE +   CLOUDY    64  63  97 E6        30.14S FOG

$$

INZ033-034-041-042-049-050-058-059-241200-
EAST CENTRAL INDIANA

CITY           SKY/WX    TMP DP  RH WIND       PRES   REMARKS
MUNCIE         CLOUDY    66  64  93 E8        30.15R FOG

$$

INZ060-061-067>069-081>083-085>088-241200-
SOUTHWEST INDIANA

CITY           SKY/WX    TMP DP  RH WIND       PRES   REMARKS
EVANSVILLE     CLEAR     66  63  90 CALM      30.10R FOG
HUNTINGBURG *+   N/A     64  63  94 CALM      30.10R VSB 3/4
WASHINGTON +   FOG       63  63 100 MISG      30.10R VSB<1/4

$$

INZ062-063-066-070>080-084-089>092-241200-
SOUTH CENTRAL AND SOUTHEAST INDIANA

CITY           SKY/WX    TMP DP  RH WIND       PRES   REMARKS
BLOOMINGTON    CLEAR     62  60  93 CALM      30.11R FOG
MADISON *+       N/A     63  61  94 CALM      30.13R VSB<1/4
NORTH VERNON + CLEAR    N/A N/A N/A CALM      30.11R HAZE
SEYMOUR +      FOG       61  61 100 CALM      30.11R VSB 1/4

$$




USA.gov is the U.S. government's official web portal to all federal, state and local government web resources and services.